Pine Bluff, AR

4:09 AM CDT on October 18, 2017 (GMT -0500)
Grider

Weather History for KPBF - November, 2013

Change the Weather History Date:

Tuesday, November 5, 2013

  Actual Average Record
Temperature  
Mean Temperature 63 °F 57 °F  
Max Temperature 71 °F 68 °F 86 °F (1920)
Min Temperature 54 °F 46 °F 23 °F (1899)
Degree Days  
Heating Degree Days 2 9  
Month to date heating degree days 44 42  
Since 1 July heating degree days 163 179  
Cooling Degree Days 0 1  
Month to date cooling degree days 0 5  
Year to date cooling degree days 2142 2124  
Growing Degree Days 12 (Base 50)    
Moisture  
Dew Point 54 °F    
Average Humidity 77    
Maximum Humidity 93    
Minimum Humidity 61    
Precipitation  
Precipitation T in 0.15 in 2.45 in (1925)
Month to date precipitation T 0.74  
Year to date precipitation 42.05 41.62  
Snow  
Snow 0.00 in 0.00 in - ()
Month to date snowfall 0.0 0.0  
Since 1 July snowfall 0.0 0.0  
Since 1 September snowfall 0.0 0.0  
Snow Depth 0.00 in    
Sea Level Pressure  
Sea Level Pressure 30.15 in    
Wind  
Wind Speed 7 mph (SE)    
Max Wind Speed 18 mph    
Max Gust Speed 23 mph    
Visibility 10 miles    
Events Rain    
T = Trace of Precipitation, MM = Missing Value Source: NWS Daily Summary

Daily Weather History Graph

Daily Weather History Graph

Search for Another Location

Airport or City:

Trip Planner

Search our weather history database for the weather conditions in past years. The results will help you decide how hot, cold, wet, or windy it might be!

Date:

Astronomy

Nov. 05, 2013 Rise Set
Actual Time 6:31 AM CST 5:10 PM CST
Civil Twilight 6:05 AM CST 5:36 PM CST
Nautical Twilight 5:35 AM CST 6:06 PM CST
Astronomical Twilight 5:06 AM CST 6:36 PM CST
Moon 8:43 AM CST (11/5) 7:16 PM CST (11/5)
Length of Visible Light 11h 31m
Length of Day
10h 39m
Waxing Crescent, 7% of the Moon is Illuminated
Nov 5
Waxing Crescent
Nov 9
First Quarter
Nov 17
Full
Nov 25
Last Quarter
Dec 2
New

Hourly Weather History & Observations

Time (CST) Temp. Dew Point Humidity Pressure Visibility Wind Dir Wind Speed Gust Speed Precip Events Conditions
12:53 AM 57.0 °F 51.1 °F 81% 30.21 in 10.0 mi Calm Calm - N/A   Clear
1:53 AM 55.9 °F 52.0 °F 87% 30.19 in 10.0 mi ESE 5.8 mph - N/A   Clear
2:53 AM 55.9 °F 51.1 °F 84% 30.19 in 10.0 mi Calm Calm - N/A   Clear
3:53 AM 55.9 °F 52.0 °F 87% 30.18 in 10.0 mi Calm Calm - N/A   Clear
4:53 AM 55.0 °F 52.0 °F 89% 30.19 in 10.0 mi Calm Calm - N/A   Partly Cloudy
5:53 AM 54.0 °F 51.1 °F 90% 30.20 in 10.0 mi Calm Calm - N/A   Clear
6:53 AM 55.0 °F 51.1 °F 86% 30.21 in 10.0 mi East 5.8 mph - 0.00 in Rain Light Rain
7:53 AM 55.9 °F 51.1 °F 84% 30.22 in 10.0 mi ESE 5.8 mph - 0.00 in   Overcast
8:53 AM 57.9 °F 51.1 °F 78% 30.22 in 10.0 mi SE 11.5 mph - N/A   Overcast
9:53 AM 59.0 °F 53.1 °F 81% 30.22 in 10.0 mi ESE 10.4 mph - N/A   Overcast
10:53 AM 62.1 °F 54.0 °F 75% 30.20 in 10.0 mi SE 12.7 mph - N/A   Overcast
11:53 AM 68.0 °F 55.0 °F 63% 30.17 in 10.0 mi SE 15.0 mph 23.0 mph N/A   Overcast
12:53 PM 68.0 °F 55.9 °F 65% 30.14 in 10.0 mi SE 9.2 mph - N/A   Mostly Cloudy
1:53 PM 69.1 °F 55.9 °F 63% 30.13 in 10.0 mi SE 12.7 mph - N/A   Mostly Cloudy
2:53 PM 71.1 °F 57.0 °F 61% 30.11 in 10.0 mi SSE 13.8 mph 20.7 mph N/A   Mostly Cloudy
3:53 PM 68.0 °F 57.0 °F 68% 30.11 in 10.0 mi SSE 8.1 mph - N/A   Partly Cloudy
4:53 PM 66.0 °F 57.9 °F 75% 30.09 in 10.0 mi ESE 6.9 mph - N/A   Clear
5:53 PM 62.1 °F 57.0 °F 84% 30.10 in 10.0 mi SE 4.6 mph - N/A   Clear
6:53 PM 61.0 °F 57.0 °F 87% 30.10 in 10.0 mi ESE 3.5 mph - N/A   Clear
7:53 PM 60.1 °F 55.9 °F 86% 30.09 in 10.0 mi ESE 6.9 mph - N/A   Clear
8:53 PM 59.0 °F 55.9 °F 90% 30.10 in 10.0 mi SE 4.6 mph - N/A   Scattered Clouds
9:53 PM 60.1 °F 55.9 °F 86% 30.10 in 10.0 mi ESE 9.2 mph - N/A   Mostly Cloudy
10:53 PM 61.0 °F 57.0 °F 87% 30.10 in 10.0 mi SE 9.2 mph - N/A   Clear
11:53 PM 61.0 °F 57.0 °F 87% 30.08 in 10.0 mi SE 9.2 mph - N/A   Overcast